This demonstration page uses our WeatherBlox Daily Observations layout. Learn more.

Left ArrowRight Arrow

Hourly Observations for October 5, 2020

Temp ( °F °C ) Dew Point ( °F °C ) Humidity (%) Winds ( mph kmh ) Pressure ( in mb ) Visibility ( mi km ) Precip ( " mm )
12:15 am 00:15 Clear 58 14.4 41 5.2 54 54 S 12 19 29.97 1015 10 16 N/A
12:35 am 00:35 Clear 58 14.2 41 5.2 55 55 S 13 20 29.97 1015 10 16 N/A
12:55 am 00:55 Clear 58 14.2 42 5.3 55 55 S 12 19 29.97 1015 10 16 N/A
1:15 am 01:15 Clear 57 14 42 5.3 56 56 S 13 20 29.97 1015 10 16 N/A
1:35 am 01:35 Clear 56 13.6 42 5.3 58 58 S 12 19 29.96 1015 10 16 N/A
1:55 am 01:55 Clear 56 13.5 42 5.3 58 58 S 13 20 29.95 1014 10 16 N/A
2:15 am 02:15 Clear 56 13.3 42 5.3 59 59 S 12 19 29.95 1014 10 16 N/A
2:35 am 02:35 Clear 55 13 41 5.2 59 59 S 10 17 29.96 1014 10 16 N/A
2:55 am 02:55 Partly Cloudy 55 12.7 41 5.2 61 61 S 10 17 29.96 1015 10 16 N/A
3:15 am 03:15 Cloudy 55 12.7 41 5.2 61 61 S 12 19 29.95 1014 10 16 N/A
3:35 am 03:35 Cloudy 55 12.6 41 5.1 61 61 S 13 20 29.95 1014 10 16 N/A
3:55 am 03:55 Mostly Cloudy 54 12.3 41 5 61 61 S 13 20 29.94 1014 10 16 N/A
4:15 am 04:15 Partly Cloudy 54 12.1 41 4.9 62 62 S 13 20 29.93 1014 10 16 N/A
4:35 am 04:35 Partly Cloudy 53 11.7 41 4.8 63 63 S 12 19 29.93 1013 10 16 N/A
4:55 am 04:55 Clear 54 12 40 4.6 61 61 S 12 19 29.94 1014 10 16 N/A
5:15 am 05:15 Clear 54 12 40 4.5 60 60 S 13 20 29.94 1014 10 16 N/A
5:35 am 05:35 Clear 54 12 40 4.5 60 60 S 13 20 29.94 1014 10 16 N/A
5:55 am 05:55 Clear 54 12 40 4.3 60 60 S 13 20 29.94 1014 10 16 N/A
6:15 am 06:15 Clear 53 11.8 40 4.2 60 60 S 14 22 29.93 1013 10 16 N/A
6:35 am 06:35 Clear 54 12.2 40 4.2 58 58 SSW 16 26 29.93 1014 10 16 N/A
6:55 am 06:55 Clear 54 12.2 39 4.1 58 58 S 16 26 29.92 1013 10 16 N/A
7:15 am 07:15 Clear 54 12.1 39 4 58 58 SSW 16 26 29.92 1013 10 16 N/A
7:35 am 07:35 Clear 54 12.1 39 4 58 58 S 16 26 29.91 1013 10 16 N/A
7:55 am 07:55 Partly Cloudy 54 12.3 39 4 57 57 S 16 26 29.91 1013 10 16 N/A
8:15 am 08:15 Mostly Cloudy 55 12.5 39 4.1 57 57 SSW 16 26 29.91 1013 10 16 N/A
8:35 am 08:35 Partly Cloudy 55 12.7 40 4.2 57 57 SSW 12 19 29.92 1013 10 16 N/A
8:55 am 08:55 Sunny 55 13 40 4.2 55 55 SSW 16 26 29.92 1013 10 16 N/A
9:15 am 09:15 Sunny 56 13.6 40 4.3 54 54 SSW 16 26 29.90 1013 10 16 N/A
9:35 am 09:35 Sunny 58 14.4 40 4.5 52 52 SW 20 31 29.90 1013 10 16 N/A
9:55 am 09:55 Sunny 59 15.1 40 4.6 50 50 SSW 9 15 29.91 1013 10 16 N/A
10:15 am 10:15 Sunny 60 15.6 40 4.6 48 48 SSW 14 22 29.88 1012 10 16 N/A
10:35 am 10:35 Sunny 62 16.4 40 4.5 45 45 SW 15 24 29.89 1012 10 16 N/A
10:55 am 10:55 Sunny 63 17.1 40 4.5 43 43 SW 15 24 29.87 1012 10 16 N/A
11:15 am 11:15 Sunny 65 18.4 40 4.4 40 40 SSW 16 26 29.85 1011 10 16 N/A
11:35 am 11:35 Sunny 67 19.5 40 4.4 37 37 SSW 13 20 29.84 1011 10 16 N/A
11:55 am 11:55 Sunny 68 20.2 40 4.2 35 35 SSW 10 17 29.83 1010 10 16 N/A
12:15 pm 12:15 Sunny 71 21.6 39 4 32 32 SW 13 20 29.81 1010 10 16 N/A
12:35 pm 12:35 Sunny 73 22.8 39 3.8 29 29 SSW 12 19 29.79 1009 10 16 N/A
12:55 pm 12:55 Sunny 75 23.9 38 3.5 27 27 WSW 12 19 29.79 1009 10 16 N/A
1:15 pm 13:15 Sunny 77 24.9 37 2.8 24 24 WSW 10 17 29.78 1008 10 16 N/A
1:35 pm 13:35 Sunny 78 25.3 36 2.2 22 22 W 8 13 29.76 1008 10 16 N/A
1:55 pm 13:55 Sunny 80 26.9 35 1.6 19 19 W 10 17 29.74 1007 10 16 N/A
2:15 pm 14:15 Sunny 81 27.2 33 0.6 18 18 W 10 17 29.74 1007 10 16 N/A
2:35 pm 14:35 Sunny 82 27.6 35 1.6 19 19 NW 7 11 29.74 1007 10 16 N/A
2:55 pm 14:55 Sunny 83 28.6 34 1 17 17 W 10 17 29.72 1006 10 16 N/A
3:15 pm 15:15 Sunny 84 29.1 34 1.3 17 17 NNW 7 11 29.72 1006 10 16 N/A
3:35 pm 15:35 Sunny 85 29.2 35 1.4 17 17 NNW 6 9 29.72 1007 10 16 N/A
3:55 pm 15:55 Sunny 85 29.5 35 1.9 17 17 N 6 9 29.71 1006 10 16 N/A
4:15 pm 16:15 Sunny 85 29.5 36 2.2 17 17 N 5 7 29.72 1006 10 16 N/A
4:35 pm 16:35 Sunny 85 29.4 36 2.2 17 17 N N/A 29.73 1007 10 16 N/A
4:55 pm 16:55 Sunny 85 29.5 37 2.6 18 18 N N/A 29.71 1006 10 16 N/A
5:15 pm 17:15 Sunny 85 29.3 37 2.8 18 18 N N/A 29.72 1007 10 16 N/A
5:35 pm 17:35 Hazy 84 29 39 3.7 20 20 NE 3 6 29.73 1007 3 5 N/A
5:55 pm 17:55 Sunny 83 28.6 40 4.3 21 21 N N/A 29.74 1007 7 11 N/A
6:15 pm 18:15 Sunny 82 27.5 40 4.5 23 23 NNE 9 15 29.76 1008 10 16 N/A
6:35 pm 18:35 Sunny 81 27.2 38 3.1 21 21 N 10 17 29.77 1008 10 16 N/A
6:55 pm 18:55 Sunny 78 25.6 37 3 23 23 N 10 17 29.80 1009 10 16 N/A
7:15 pm 19:15 Clear 76 24.6 37 3 25 25 N 12 19 29.83 1010 10 16 N/A
7:35 pm 19:35 Clear 74 23.2 38 3.4 28 28 N 8 13 29.86 1011 10 16 N/A
7:55 pm 19:55 Clear 71 21.6 39 3.8 31 31 N 8 13 29.88 1012 10 16 N/A
8:15 pm 20:15 Clear 68 20.2 39 4 35 35 N 7 11 29.91 1013 10 16 N/A
8:35 pm 20:35 Clear 69 20.5 40 4.4 35 35 N 12 19 29.92 1013 10 16 N/A
8:55 pm 20:55 Clear 67 19.3 40 4.7 38 38 N 9 15 29.93 1014 10 16 N/A
9:15 pm 21:15 Clear 64 18 41 5.1 43 43 NNE 8 13 29.95 1014 10 16 N/A
9:35 pm 21:35 Clear 63 17.3 42 5.5 46 46 N 10 17 29.96 1015 10 16 N/A
9:55 pm 21:55 Clear 62 16.5 42 5.7 49 49 N 8 13 29.99 1015 10 16 N/A
10:15 pm 22:15 Clear 60 15.6 43 6 53 53 N 8 13 29.99 1016 10 16 N/A
10:35 pm 22:35 Clear 59 15.2 43 6.2 55 55 N 6 9 30.01 1016 10 16 N/A
10:55 pm 22:55 Clear 59 14.8 43 6.3 57 57 N 7 11 30.01 1016 10 16 N/A
11:15 pm 23:15 Clear 56 13.5 43 6.1 61 61 N 6 9 30.03 1017 10 16 N/A
11:35 pm 23:35 Clear 58 14.6 44 6.4 58 58 N 5 7 30.03 1017 10 16 N/A
11:55 pm 23:55 Clear 56 13.3 43 5.9 61 61 N N/A 30.04 1017 10 16 N/A

Powered by AerisWeather